[[{"header":{"parameterUnit":"m.s-1","parameterCategory":1,"la1":30.2991,"la2":30.254,"lo1":-89.0895,"lo2":-89.0444,"dy":0.0017,"dx":0.0017,"nx":28,"ny":28,"refTime":"2023-07-22T21:00:00:Z","depth":0,"parameterNumber":2,"parameterNumberName":"U-component_of_WINDS"},"data":[0,0,0,0,0,0,0,0,0,0,0,0,0,0,0,0,0,0,0,0,0,0,0,0,0,0,0,0,0,0,0,0,0,0,0,0,0,0,0,0,0,0,0,0,0,0,0,0,0,0,0,0,0,0,0,0,0,0,3.2545,3.2548,0,3.2798,3.2801,3.2804,3.2812,3.2809,3.2805,3.2803,3.3066,3.3075,3.3085,0,0,0,0,0,0,0,0,0,0,0,0,0,3.2071,3.208,3.2545,3.2548,3.2551,3.2798,3.2801,3.2805,3.2812,3.2808,3.2805,3.2801,3.3062,3.3074,3.3086,0,0,0,0,0,0,0,0,0,0,0,0,0,3.2296,3.2082,3.2544,3.2584,3.2591,3.2797,3.2801,3.2806,3.2813,3.2808,3.2804,3.2799,3.3059,3.3073,3.3088,3.3272,0,0,3.3133,3.3139,0,0,0,0,0,0,0,0,3.2283,3.2313,3.2575,3.2582,3.2589,3.2769,3.2731,3.2962,3.2814,3.2729,3.2802,3.2797,3.2971,3.2993,3.305,3.3285,3.3296,3.3134,3.3143,3.315,3.3154,0,0,0,0,0,0,0,3.2268,3.2302,3.2645,3.2579,3.2588,3.2591,3.2618,3.2775,3.2873,3.2736,3.2737,3.2767,3.2974,3.3036,3.3057,3.33,3.3134,3.3147,3.3156,3.3162,3.3699,3.3704,0,0,0,0,0,0,3.2243,3.2289,3.2637,3.2653,3.2421,3.2603,3.2633,3.2716,3.2871,3.289,3.277,3.2766,3.3013,3.3039,3.3066,3.3292,3.315,3.3164,3.3172,3.3694,3.37,3.3706,0,0,0,0,0,0,3.2233,3.2274,3.2627,3.2472,3.2517,3.2616,3.2709,3.2723,3.2785,3.2897,3.2915,3.2816,3.301,3.3045,3.3221,3.3302,3.317,3.3184,3.3688,3.3696,3.3703,3.3746,0,0,0,0,0,0,3.222,3.2271,3.2341,3.2473,3.2525,3.2776,3.2714,3.2731,3.2811,3.2807,3.2945,3.2963,3.3009,3.3199,3.3236,3.332,3.3195,3.3681,3.3691,3.3701,3.3738,3.3755,3.3769,0,0,0,0,0,3.2203,3.2344,3.2344,3.2386,3.2614,3.2781,3.2811,3.286,3.2817,3.2889,3.2961,3.2958,3.3287,3.3217,3.3258,3.3348,3.3676,3.3688,3.37,3.3731,3.3752,3.3769,0,0,0,0,0,0,3.2219,3.2361,3.2364,3.2551,3.2654,3.2782,3.2874,3.288,3.2998,3.299,3.3048,3.3079,3.3254,3.3319,3.3238,3.3535,3.3477,3.3498,3.3486,3.3506,3.3522,3.3502,3.3208,0,0,0,0,0,3.2244,3.2366,3.2485,3.2639,3.269,3.2773,3.2848,3.2877,3.2986,3.303,3.3114,3.3221,3.3349,3.3431,3.3555,3.3748,3.3779,3.3831,3.3846,3.3858,3.3875,3.3983,3.4008,3.3746,3.3746,3.3745,0,0,3.2298,3.2391,3.2465,3.2645,3.2727,3.2854,3.281,3.2945,3.3039,3.3051,3.3221,3.3288,3.3411,3.3596,3.3682,3.3656,3.3955,3.3874,3.3883,3.3893,3.3998,3.4023,3.4045,3.3754,3.3753,3.3751,0,0,3.246,3.2543,3.268,3.2764,3.289,3.2944,3.2977,3.3105,3.3149,3.3321,3.3332,3.3446,3.3664,3.3752,3.3825,3.4021,3.4024,3.406,3.4141,3.4245,3.4266,3.4284,3.4354,3.4379,3.4077,3.4077,3.4078,0,3.2511,3.27,3.275,3.2886,3.2965,3.298,3.312,3.32,3.336,3.3415,3.3383,3.3657,3.3742,3.3947,3.3995,3.4054,3.4095,3.4044,3.4258,3.4278,3.4296,3.4363,3.4389,3.4081,3.4081,3.408,3.408,0,3.2757,3.2888,3.2984,3.3137,3.3228,3.3365,3.3437,3.3522,3.3545,3.3603,3.3779,3.388,3.4025,3.4076,3.41,3.4287,3.4266,3.4246,3.4188,3.4323,3.4388,3.4414,3.4086,3.4085,3.4084,3.4083,0,0,3.2935,3.3114,3.3148,3.3218,3.3358,3.3462,3.3601,3.3741,3.3813,3.3924,3.4042,3.4227,3.4209,3.4292,3.4326,3.4417,3.4567,3.4386,3.439,3.4416,3.4779,3.4792,3.4821,3.457,3.4575,3.4579,3.4768,0,3.3111,3.3356,3.3406,3.3619,3.3741,3.3758,3.3879,3.3979,3.4038,3.4152,3.4217,3.4347,3.4314,3.4364,3.4456,3.4529,3.464,3.4516,3.4681,3.4686,3.4648,3.4855,3.487,3.5044,3.4794,3.4798,3.4801,0,3.335,3.3465,3.3689,3.3814,3.3867,3.3975,3.4107,3.4215,3.433,3.4367,3.446,3.4484,3.463,3.4566,3.4769,3.4683,3.4754,3.4801,3.4809,3.4825,3.4751,3.4876,3.51,3.5126,3.4842,3.4838,3.4836,0,3.3456,3.3667,3.3829,3.3888,3.4038,3.4113,3.4179,3.4289,3.4371,3.4488,3.4541,3.4674,3.4747,3.485,3.491,3.4858,3.5109,3.505,3.5144,3.5142,3.5195,3.5191,3.5432,3.5242,3.5242,3.5241,3.5241,0,3.3647,3.3784,3.3879,3.3978,3.4132,3.4189,3.434,3.4406,3.4504,3.4618,3.4642,3.4748,3.4821,3.4939,3.4987,3.5148,3.5181,3.5215,3.5226,3.5213,3.5208,3.5259,3.5248,3.5248,3.5247,3.5245,3.5244,0,3.3791,3.386,3.4037,3.4165,3.42,3.4308,3.4417,3.4516,3.4575,3.4718,3.4756,3.485,3.4989,3.5059,3.5234,3.5266,3.5448,3.5452,3.5408,3.5412,3.5502,3.5493,3.5784,3.5826,3.5609,3.5611,3.5612,0,3.3908,3.4013,3.4151,3.4229,3.4296,3.442,3.4503,3.4564,3.465,3.4789,3.487,3.5011,3.5126,3.5348,3.5433,3.5567,3.5574,3.5667,3.5594,3.5577,3.5575,3.5567,3.5578,3.568,3.5682,3.5683,3.5685,0,3.4107,3.4137,3.4254,3.4385,3.4483,3.4589,3.4694,3.4756,3.4834,3.493,3.5072,3.5161,3.5339,3.5478,3.5618,3.5688,3.5701,3.5707,3.5736,3.5723,3.5693,3.571,3.5442,3.57,3.5698,3.5697,3.5697,3.5696,3.4241,3.4336,3.4448,3.4579,3.4664,3.4761,3.4859,3.4931,3.505,3.5198,3.5228,3.5379,3.5492,3.5681,3.5756,3.5876,3.5856,3.5898,3.5908,3.5917,3.5921,3.5674,3.5902,3.5902,3.5901,3.5901,3.5901,0,3.4441,3.4514,3.4634,3.4779,3.4883,3.4884,3.5001,3.5088,3.5219,3.5324,3.5437,3.5601,3.5737,3.5832,3.5971,3.6049,3.6058,3.6083,3.6077,3.6093,3.5932,3.5892,3.6073,3.6073,3.6073,3.6073,3.6073,3.6073,3.4557,3.4717,3.476,3.4963,3.5036,3.5183,3.5249,3.534,3.5423,3.5605,3.5717,3.5778,3.588,3.6026,3.6152,3.6177,3.6226,3.6251,3.6276,3.6123,3.6105,3.6087,3.6051,3.6262,3.6262,3.6428,3.643,3.6431]},{"header":{"parameterUnit":"m.s-1","parameterCategory":1,"la1":30.2991,"la2":30.254,"lo1":-89.0895,"lo2":-89.0444,"dy":0.0017,"dx":0.0017,"nx":28,"ny":28,"refTime":"2023-07-22T21:00:00:Z","depth":0,"parameterNumber":3,"parameterNumberName":"V-component_of_WINDS"},"data":[0,0,0,0,0,0,0,0,0,0,0,0,0,0,0,0,0,0,0,0,0,0,0,0,0,0,0,0,0,0,0,0,0,0,0,0,0,0,0,0,0,0,0,0,0,0,0,0,0,0,0,0,0,0,0,0,0,0,2.493,2.493,0,2.4937,2.4938,2.4938,2.4844,2.4841,2.4839,2.4836,2.4848,2.485,2.4853,0,0,0,0,0,0,0,0,0,0,0,0,0,2.4835,2.4837,2.493,2.493,2.493,2.4937,2.4938,2.4938,2.4844,2.4841,2.4838,2.4835,2.4847,2.485,2.4853,0,0,0,0,0,0,0,0,0,0,0,0,0,2.4863,2.4838,2.493,2.4884,2.488,2.4937,2.4938,2.4938,2.4845,2.4841,2.4837,2.4834,2.4846,2.485,2.4854,2.4956,0,0,2.4866,2.4868,0,0,0,0,0,0,0,0,2.4862,2.4867,2.4891,2.4887,2.4883,2.4886,2.4908,2.4944,2.4846,2.4858,2.4836,2.4832,2.4864,2.4866,2.4876,2.4957,2.4957,2.4867,2.4869,2.4871,2.4872,0,0,0,0,0,0,0,2.486,2.4866,2.4933,2.4891,2.4886,2.4864,2.4863,2.4915,2.4883,2.4857,2.485,2.4852,2.4861,2.4873,2.4876,2.4958,2.4866,2.487,2.4873,2.4874,2.5119,2.5122,0,0,0,0,0,0,2.4864,2.4865,2.4933,2.4933,2.4862,2.4868,2.4868,2.4889,2.4882,2.4877,2.4856,2.4848,2.4867,2.4871,2.4876,2.4992,2.4871,2.4875,2.4877,2.5115,2.5119,2.5124,0,0,0,0,0,0,2.4862,2.4871,2.4932,2.4897,2.4903,2.4874,2.4898,2.4891,2.4902,2.4881,2.4875,2.4873,2.4865,2.487,2.4936,2.4991,2.4876,2.488,2.511,2.5116,2.5122,2.5228,0,0,0,0,0,0,2.486,2.487,2.4909,2.4898,2.4905,2.4992,2.4902,2.4894,2.4909,2.4899,2.4896,2.4891,2.4862,2.493,2.494,2.4995,2.4883,2.5105,2.5113,2.512,2.5219,2.5237,2.5252,0,0,0,0,0,2.4857,2.494,2.4912,2.492,2.4953,2.4996,2.4999,2.4963,2.4914,2.4952,2.4938,2.4892,2.4984,2.4938,2.4948,2.5005,2.5101,2.511,2.5119,2.5212,2.5233,2.5251,0,0,0,0,0,0,2.4961,2.4938,2.4906,2.4989,2.4995,2.498,2.5027,2.4987,2.5008,2.4998,2.4953,2.4953,2.5025,2.5022,2.4971,2.5102,2.5034,2.5046,2.5101,2.5121,2.5137,2.5136,2.4887,0,0,0,0,0,2.4993,2.5029,2.5008,2.5083,2.5087,2.5057,2.5074,2.5045,2.505,2.5052,2.5042,2.505,2.5079,2.5101,2.5128,2.5219,2.5215,2.5263,2.5279,2.5293,2.5303,2.5347,2.5367,2.5154,2.5154,2.5154,0,0,2.5061,2.5053,2.5079,2.5103,2.5104,2.5142,2.506,2.5104,2.5131,2.5059,2.5119,2.5113,2.5117,2.5195,2.5229,2.5195,2.5361,2.5304,2.5315,2.5318,2.5359,2.5379,2.5397,2.516,2.5159,2.5158,0,0,2.5202,2.5201,2.5261,2.5263,2.5264,2.5243,2.5258,2.5248,2.524,2.53,2.5245,2.5278,2.5332,2.5336,2.5345,2.5485,2.5442,2.5496,2.558,2.5624,2.5641,2.5656,2.5703,2.5721,2.5506,2.5507,2.5507,0,2.5286,2.534,2.5298,2.5344,2.5356,2.529,2.535,2.5355,2.5366,2.5375,2.5336,2.54,2.5399,2.5475,2.5509,2.552,2.5534,2.5495,2.5642,2.5656,2.5669,2.5713,2.5732,2.5513,2.5512,2.5511,2.5511,0,2.5442,2.548,2.5528,2.5537,2.5555,2.5609,2.5574,2.5597,2.5566,2.5549,2.5609,2.5605,2.5628,2.5644,2.5616,2.5716,2.5694,2.565,2.558,2.5696,2.5737,2.5754,2.5522,2.5519,2.5518,2.5516,0,0,2.565,2.5632,2.5651,2.5652,2.5648,2.5677,2.5727,2.5747,2.5766,2.5776,2.5815,2.5861,2.5819,2.5829,2.5801,2.584,2.5947,2.579,2.5789,2.5817,2.6053,2.6085,2.6105,2.5919,2.5922,2.5925,2.6052,0,2.5785,2.5867,2.5829,2.5915,2.5948,2.5885,2.5928,2.593,2.5916,2.5942,2.5926,2.5957,2.5901,2.5906,2.5942,2.5927,2.5994,2.5917,2.5954,2.5956,2.5952,2.6127,2.6161,2.6281,2.6068,2.6071,2.6073,0,2.5953,2.5966,2.6055,2.6041,2.6054,2.6093,2.6107,2.6133,2.6134,2.612,2.613,2.6092,2.6139,2.6071,2.6135,2.6084,2.6097,2.6092,2.6095,2.6095,2.602,2.613,2.6319,2.6336,2.6098,2.6096,2.6094,0,2.6092,2.6132,2.6189,2.6193,2.618,2.6208,2.6204,2.62,2.6214,2.6227,2.6235,2.6255,2.6265,2.6281,2.6248,2.6202,2.6315,2.6246,2.6304,2.6305,2.6329,2.6328,2.6521,2.6343,2.6342,2.6342,2.6342,0,2.6245,2.6301,2.625,2.6286,2.6346,2.6302,2.6364,2.6353,2.635,2.6381,2.633,2.6361,2.6317,2.6344,2.6319,2.6374,2.638,2.6369,2.6361,2.6372,2.6373,2.6378,2.6368,2.6347,2.6346,2.6345,2.6344,0,2.6409,2.6378,2.6435,2.6416,2.6413,2.6458,2.6442,2.6473,2.6454,2.6494,2.6502,2.6472,2.65,2.6469,2.6497,2.648,2.6553,2.6534,2.6552,2.6545,2.6604,2.6598,2.6806,2.6829,2.6639,2.6641,2.6642,0,2.6507,2.6548,2.6533,2.6549,2.6547,2.6575,2.6587,2.6546,2.6561,2.6563,2.6594,2.6618,2.6634,2.6682,2.6663,2.6683,2.6663,2.6734,2.6666,2.6674,2.666,2.6657,2.6659,2.6748,2.675,2.6752,2.6754,0,2.6684,2.6666,2.6685,2.6698,2.6714,2.6724,2.6729,2.6746,2.6702,2.6722,2.6749,2.6762,2.6788,2.6811,2.6825,2.6821,2.678,2.6775,2.6789,2.6799,2.6806,2.68,2.6587,2.677,2.6769,2.6767,2.6767,2.6766,2.6816,2.6848,2.684,2.6863,2.6862,2.6867,2.6895,2.6878,2.6899,2.6915,2.689,2.6923,2.692,2.6934,2.6935,2.696,2.693,2.6951,2.6955,2.6961,2.6968,2.6804,2.6963,2.6962,2.6962,2.6962,2.6961,0,2.6987,2.6978,2.6999,2.7006,2.7024,2.6982,2.6985,2.7003,2.7032,2.7032,2.7048,2.7078,2.71,2.7082,2.71,2.7124,2.7105,2.7129,2.7126,2.7125,2.6996,2.698,2.7144,2.7144,2.7144,2.7144,2.7144,2.7144,2.7077,2.7128,2.7108,2.7157,2.7149,2.7179,2.7184,2.7188,2.7187,2.7222,2.7239,2.7227,2.7219,2.7236,2.7254,2.7248,2.7256,2.7286,2.7274,2.7153,2.7135,2.7117,2.7102,2.7289,2.7289,2.74,2.7401,2.7402]}]]